STARLINK-36036, 66608

Orbit data source: Space-Track

STARLINK-36036, 66608 is a payload satellite owned by SpaceX/Seattle (US) in LEO that was launched on Sat, 22 Nov 2025 UTC via an FALCON 9 launch vehicle from the Air Force Eastern Test Range (AFETR). Payload-class satellites include a variety of spacecraft equipped with specific instruments for various scientific and technological missions. These include communications satellites like Starlink; space stations such as the ISS; scientific satellites like the Hubble; Earth observation satellites from companies like Planet Labs, Umbra, and HawkEye 360; GPS; miniature CubeSats for education and research; and military/defense satellites.

Loading next visibility...
Identifier
66608, 2025-270W
Orbit
LEO
Country
Flag of USUS
Related business
Manufacturer
SpaceX/Seattle
Mission
Operational Commercial Communications
Bus & Motor
STARLINK V2MO, Unknown motor
Mass
575 kg wet, ~530 kg dry
Launch date (UTC)
2025-11-22 (7 months ago)
Launch vehicle
FALCON 9
Launch site
Air Force Eastern Test Range (AFETR)
Object type
Payload
Rocket body
Debris
Shape & HBR
Box + 2 Pan, 17.7 m
Radar Cross Section
36.964 m², Large (>1 m²)

Expand to show TLE details & history
Last TLE update: 13 hours ago

TLE from 13 hours ago
0 STARLINK-36036
1 66608U 25270W   26171.37977624  .00009160  00000-0  34183-3 0  9992
2 66608  43.0012 196.0065 0001439 265.1815  94.8872 15.27593981 33251
Epoch: 2026-06-20T09:06Z
TLE epoch observation values (Epoch: 2026-06-20T09:06:52.667Z)
Latitude
-0.00003°
Longitude
150.69179°
Altitude
482.867 km
Speed
7.626 km/s
True Right ascension
13h 04m 01s
True Declination
0° 00' 00"
Sunlit
Object was in daylight at epoch
Visualization orbit readout
Latitude
Unknown
Longitude
Unknown
Altitude
Unknown
Speed
Unknown
Apparent Right ascension
Unknown
Apparent Declination
Unknown
Sunlit
N/A
Visualization observer readout
Local Sidereal Time
08:33:22
Azimuth
Unknown
Elevation
Unknown
Doppler factor
Unknown
Orbital elements
Apogee altitude
485.94 km
Perigee altitude
483.965 km
Semi-major axis
6,863.089 km
Eccentricity
0.00014
Inclination
43.0012°
RAAN
196.0065°
Arg. of periapsis
265.1815°
True anomaly
94.90363°
Mean anomaly
94.8872°
Eccentric anomaly
94.89541°
Mean motion
3.81737 °/min
Orbital period
94.31 mins
BSTAR
0.00034183
Loading maneuver chart data...
Computing Atmospheric mass density...
Loading historical data...
Loading historical data...
Loading historical data...
Loading historical data...
Loading historical data...
Loading historical data...
Loading historical data...

Documentation

Showing up to 5 results
|